GLO2135 SBPK-SBSP

Flight info

Callsign GLO2135
Flight time 1h 22m
Altitude 39000
Route TEMEK UM424 ARVUS UM540 ANISE
Aircraft B738/M-SDE2E3FGHIRWXY/LB1

Departure

Time 2026-04-25 21:03
Airport João Simões Lopes Neto International Airport (SBPK)

Arrival

Time 2026-04-25 22:26
Airport Congonhas–Deputado Freitas Nobre Airport (SBSP)
Time Latitude Longitude Altitude Speed Heading
2026-04-25 20:58 -31.71740 -52.33020 65 ft 5 kts 141°
2026-04-25 20:58 -31.71769 -52.32994 59 ft 5 kts 142°
2026-04-25 20:58 -31.71801 -52.32964 57 ft 8 kts 142°
2026-04-25 20:58 -31.71800 -52.32903 56 ft 10 kts 49°
2026-04-25 20:59 -31.71744 -52.32822 58 ft 16 kts 51°
2026-04-25 20:59 -31.71670 -52.32714 59 ft 17 kts 51°
2026-04-25 20:59 -31.71596 -52.32605 63 ft 17 kts 51°
2026-04-25 20:59 -31.71524 -52.32501 63 ft 16 kts 51°
2026-04-25 21:00 -31.71456 -52.32400 60 ft 15 kts 51°
2026-04-25 21:00 -31.71433 -52.32367 60 ft 15 kts 51°
2026-04-25 21:00 -31.71239 -52.32084 56 ft 14 kts 51°
2026-04-25 21:01 -31.71204 -52.32027 59 ft 7 kts 72°
2026-04-25 21:01 -31.71183 -52.31979 58 ft 4 kts 15°
2026-04-25 21:01 -31.71180 -52.31999 58 ft 4 kts 236°
2026-04-25 21:01 -31.71184 -52.32005 54 ft 0 kts 232°
2026-04-25 21:03 -31.71216 -52.32052 62 ft 36 kts 231°
2026-04-25 21:03 -31.71558 -52.32552 56 ft 119 kts 231°
2026-04-25 21:03 -31.72204 -52.33499 231 ft 170 kts 230°
2026-04-25 21:03 -31.72956 -52.34578 1098 ft 177 kts 229°
2026-04-25 21:04 -31.73498 -52.35938 1708 ft 204 kts 267°
2026-04-25 21:04 -31.72953 -52.37566 2019 ft 234 kts 315°
2026-04-25 21:04 -31.71469 -52.38452 2443 ft 254 kts 351°
2026-04-25 21:04 -31.69665 -52.38234 2886 ft 276 kts 25°
2026-04-25 21:05 -31.68022 -52.37001 3730 ft 281 kts 36°
2026-04-25 21:05 -31.66463 -52.35706 5076 ft 271 kts 33°
2026-04-25 21:05 -31.64897 -52.34448 6041 ft 275 kts 33°
2026-04-25 21:05 -31.63311 -52.33203 6920 ft 280 kts 32°
2026-04-25 21:06 -31.61668 -52.31932 7787 ft 285 kts 32°
2026-04-25 21:06 -31.59993 -52.30650 8669 ft 290 kts 31°
2026-04-25 21:06 -31.58289 -52.29357 9537 ft 294 kts 31°
2026-04-25 21:06 -31.57141 -52.28489 10085 ft 298 kts 31°
2026-04-25 21:07 -31.54704 -52.26660 10563 ft 328 kts 30°
2026-04-25 21:07 -31.52728 -52.25182 11061 ft 343 kts 30°
2026-04-25 21:07 -31.50695 -52.23663 11796 ft 349 kts 29°
2026-04-25 21:07 -31.48636 -52.22125 12608 ft 353 kts 28°
2026-04-25 21:08 -31.46576 -52.20589 13367 ft 358 kts 28°
2026-04-25 21:08 -31.44458 -52.19010 14079 ft 364 kts 27°
2026-04-25 21:08 -31.42304 -52.17408 14766 ft 369 kts 27°
2026-04-25 21:08 -31.40128 -52.15790 15453 ft 373 kts 27°
2026-04-25 21:09 -31.35687 -52.12493 16825 ft 382 kts 26°
2026-04-25 21:09 -31.33426 -52.10815 17512 ft 387 kts 26°
2026-04-25 21:09 -31.31141 -52.09120 18181 ft 391 kts 25°
2026-04-25 21:10 -31.28826 -52.07405 18762 ft 396 kts 25°
2026-04-25 21:10 -31.26521 -52.05697 19343 ft 399 kts 25°
2026-04-25 21:10 -31.24166 -52.03953 19930 ft 403 kts 25°
2026-04-25 21:10 -31.21786 -52.02191 20500 ft 407 kts 25°
2026-04-25 21:11 -31.19376 -52.00409 21049 ft 412 kts 25°
2026-04-25 21:11 -31.16944 -51.98612 21608 ft 416 kts 25°
2026-04-25 21:11 -31.14486 -51.96797 22165 ft 420 kts 25°
2026-04-25 21:11 -31.12010 -51.94968 22700 ft 424 kts 25°
2026-04-25 21:12 -31.09506 -51.93121 23229 ft 428 kts 25°
2026-04-25 21:12 -31.07011 -51.91282 23700 ft 432 kts 25°
2026-04-25 21:12 -31.04459 -51.89402 24135 ft 435 kts 24°
2026-04-25 21:12 -31.02725 -51.88125 24432 ft 438 kts 24°
2026-04-25 21:13 -30.99301 -51.85605 25008 ft 442 kts 24°
2026-04-25 21:13 -30.96689 -51.83683 25430 ft 445 kts 23°
2026-04-25 21:13 -30.94058 -51.81750 25851 ft 449 kts 23°
2026-04-25 21:13 -30.91410 -51.79805 26246 ft 452 kts 22°
2026-04-25 21:14 -30.88739 -51.77846 26630 ft 456 kts 22°
2026-04-25 21:14 -30.86081 -51.75896 27005 ft 459 kts 22°
2026-04-25 21:14 -30.83366 -51.73907 27401 ft 462 kts 22°
2026-04-25 21:14 -30.80636 -51.71906 27770 ft 465 kts 21°
2026-04-25 21:15 -30.77894 -51.69898 28167 ft 467 kts 21°
2026-04-25 21:15 -30.75138 -51.67881 28532 ft 470 kts 20°
2026-04-25 21:15 -30.72358 -51.65849 28886 ft 473 kts 20°
2026-04-25 21:15 -30.69560 -51.63805 29242 ft 476 kts 20°
2026-04-25 21:16 -30.66745 -51.61750 29570 ft 479 kts 20°
2026-04-25 21:16 -30.63913 -51.59681 29924 ft 482 kts 20°
2026-04-25 21:16 -30.61104 -51.57631 30207 ft 485 kts 19°
2026-04-25 21:16 -30.58244 -51.55548 30456 ft 487 kts 19°
2026-04-25 21:17 -30.55339 -51.53525 30724 ft 486 kts 17°
2026-04-25 21:17 -30.52453 -51.51407 30951 ft 500 kts 24°
2026-04-25 21:17 -30.49710 -51.48854 31231 ft 509 kts 28°
2026-04-25 21:17 -30.47022 -51.46148 31507 ft 514 kts 30°
2026-04-25 21:18 -30.44346 -51.43383 31718 ft 517 kts 30°
2026-04-25 21:18 -30.41652 -51.40599 31955 ft 519 kts 30°
2026-04-25 21:18 -30.38943 -51.37829 32210 ft 520 kts 29°
2026-04-25 21:18 -30.36252 -51.35108 32535 ft 520 kts 28°
2026-04-25 21:19 -30.33524 -51.32374 32886 ft 518 kts 28°
2026-04-25 21:19 -30.30793 -51.29656 33213 ft 518 kts 28°
2026-04-25 21:19 -30.28057 -51.26943 33513 ft 518 kts 28°
2026-04-25 21:19 -30.25323 -51.24237 33807 ft 518 kts 28°
2026-04-25 21:20 -30.22584 -51.21527 34097 ft 518 kts 28°
2026-04-25 21:20 -30.21658 -51.20610 34191 ft 518 kts 28°
2026-04-25 21:20 -30.17112 -51.16110 34582 ft 518 kts 28°
2026-04-25 21:20 -30.14379 -51.13406 34843 ft 518 kts 28°
2026-04-25 21:21 -30.11680 -51.10736 35116 ft 518 kts 28°
2026-04-25 21:21 -30.08942 -51.08031 35394 ft 517 kts 28°
2026-04-25 21:21 -30.06212 -51.05335 35651 ft 517 kts 28°
2026-04-25 21:21 -30.03477 -51.02637 35886 ft 518 kts 28°
2026-04-25 21:22 -30.00738 -50.99937 36136 ft 517 kts 28°
2026-04-25 21:22 -29.98003 -50.97242 36401 ft 517 kts 28°
2026-04-25 21:22 -29.95273 -50.94553 36654 ft 517 kts 28°
2026-04-25 21:22 -29.92535 -50.91860 36880 ft 517 kts 28°
2026-04-25 21:23 -29.89801 -50.89173 37108 ft 517 kts 28°
2026-04-25 21:23 -29.87091 -50.86549 37348 ft 514 kts 26°
2026-04-25 21:23 -29.84290 -50.84017 37588 ft 510 kts 25°
2026-04-25 21:23 -29.81457 -50.81563 37806 ft 509 kts 24°
2026-04-25 21:24 -29.78609 -50.79133 37984 ft 509 kts 24°
2026-04-25 21:24 -29.75760 -50.76700 38125 ft 510 kts 24°
2026-04-25 21:24 -29.72921 -50.74257 38349 ft 510 kts 24°
2026-04-25 21:24 -29.70087 -50.71800 38609 ft 509 kts 25°
2026-04-25 21:25 -29.67264 -50.69342 38804 ft 509 kts 25°
2026-04-25 21:25 -29.64484 -50.66921 38956 ft 508 kts 25°
2026-04-25 21:25 -29.58823 -50.62002 38974 ft 510 kts 25°
2026-04-25 21:26 -29.53180 -50.57102 38948 ft 507 kts 25°
2026-04-25 21:26 -29.47564 -50.52255 38976 ft 503 kts 25°
2026-04-25 21:27 -29.41970 -50.47455 38975 ft 501 kts 25°
2026-04-25 21:27 -29.36404 -50.42686 38992 ft 499 kts 25°
2026-04-25 21:28 -29.30878 -50.37955 38986 ft 499 kts 25°
2026-04-25 21:28 -29.25309 -50.33190 38992 ft 500 kts 25°
2026-04-25 21:29 -29.19730 -50.28424 38965 ft 501 kts 25°
2026-04-25 21:29 -29.14141 -50.23655 38977 ft 502 kts 25°
2026-04-25 21:30 -29.08563 -50.18902 38975 ft 504 kts 25°
2026-04-25 21:30 -29.03848 -50.14888 38992 ft 505 kts 25°
2026-04-25 21:31 -28.97295 -50.09317 38987 ft 506 kts 25°
2026-04-25 21:31 -28.91645 -50.04522 38977 ft 506 kts 25°
2026-04-25 21:32 -28.86038 -49.99767 38964 ft 505 kts 26°
2026-04-25 21:32 -28.80405 -49.94998 38955 ft 504 kts 26°
2026-04-25 21:33 -28.74774 -49.90238 38991 ft 504 kts 26°
2026-04-25 21:33 -28.69143 -49.85484 38927 ft 503 kts 26°
2026-04-25 21:34 -28.63592 -49.80785 38977 ft 498 kts 26°
2026-04-25 21:34 -28.58070 -49.76108 39025 ft 494 kts 26°
2026-04-25 21:35 -28.52501 -49.71412 38997 ft 501 kts 26°
2026-04-25 21:35 -28.46869 -49.66659 38996 ft 507 kts 27°
2026-04-25 21:36 -28.41218 -49.61916 38985 ft 509 kts 26°
2026-04-25 21:36 -28.35506 -49.57139 38994 ft 510 kts 26°
2026-04-25 21:37 -28.31685 -49.53943 39000 ft 510 kts 26°
2026-04-25 21:37 -28.24129 -49.47621 38955 ft 499 kts 26°
2026-04-25 21:38 -28.18581 -49.43000 38964 ft 493 kts 26°
2026-04-25 21:38 -28.13103 -49.38455 38973 ft 491 kts 27°
2026-04-25 21:39 -28.07589 -49.33878 38983 ft 493 kts 27°
2026-04-25 21:39 -28.02084 -49.29211 38976 ft 495 kts 28°
2026-04-25 21:40 -27.96573 -49.24513 38982 ft 496 kts 28°
2026-04-25 21:40 -27.91975 -49.20612 38960 ft 498 kts 28°
2026-04-25 21:41 -27.85509 -49.15202 38966 ft 497 kts 26°
2026-04-25 21:41 -27.79856 -49.10704 38980 ft 497 kts 26°
2026-04-25 21:42 -27.75146 -49.06962 38954 ft 499 kts 26°
2026-04-25 21:42 -27.69486 -49.02429 38966 ft 499 kts 27°
2026-04-25 21:43 -27.62978 -48.97037 38966 ft 499 kts 27°
2026-04-25 21:43 -27.57394 -48.92412 38958 ft 497 kts 27°
2026-04-25 21:44 -27.51823 -48.87829 38960 ft 494 kts 27°
2026-04-25 21:45 -27.44446 -48.81767 38945 ft 492 kts 27°
2026-04-25 21:45 -27.38919 -48.77228 38935 ft 490 kts 27°
2026-04-25 21:46 -27.33422 -48.72717 38935 ft 489 kts 27°
2026-04-25 21:46 -27.27960 -48.68243 38921 ft 489 kts 27°
2026-04-25 21:47 -27.22469 -48.63702 38937 ft 491 kts 28°
2026-04-25 21:47 -27.16989 -48.59124 38935 ft 491 kts 27°
2026-04-25 21:48 -27.11447 -48.54636 38927 ft 492 kts 27°
2026-04-25 21:48 -27.05881 -48.50149 38924 ft 493 kts 27°
2026-04-25 21:49 -27.00345 -48.45680 38920 ft 494 kts 27°
2026-04-25 21:49 -26.94759 -48.41172 38893 ft 495 kts 27°
2026-04-25 21:50 -26.89171 -48.36667 38914 ft 495 kts 27°
2026-04-25 21:50 -26.83617 -48.32196 38924 ft 495 kts 27°
2026-04-25 21:51 -26.78022 -48.27698 38922 ft 495 kts 27°
2026-04-25 21:51 -26.72422 -48.23201 38923 ft 495 kts 27°
2026-04-25 21:52 -26.66825 -48.18703 38920 ft 495 kts 27°
2026-04-25 21:52 -26.61242 -48.14208 38918 ft 494 kts 27°
2026-04-25 21:53 -26.55698 -48.09751 38919 ft 494 kts 27°
2026-04-25 21:53 -26.50127 -48.05278 38921 ft 493 kts 27°
2026-04-25 21:54 -26.44556 -48.00812 38907 ft 492 kts 28°
2026-04-25 21:54 -26.38996 -47.96358 38921 ft 491 kts 28°
2026-04-25 21:55 -26.33445 -47.91918 38922 ft 491 kts 28°
2026-04-25 21:55 -26.27942 -47.87517 38910 ft 490 kts 28°
2026-04-25 21:56 -26.22407 -47.83091 38916 ft 489 kts 28°
2026-04-25 21:56 -26.16883 -47.78678 38910 ft 489 kts 28°
2026-04-25 21:57 -26.11356 -47.74270 38916 ft 488 kts 28°
2026-04-25 21:57 -26.05867 -47.69910 38913 ft 488 kts 28°
2026-04-25 21:58 -26.00339 -47.65528 38893 ft 488 kts 28°
2026-04-25 21:58 -25.94812 -47.61149 38917 ft 488 kts 28°
2026-04-25 21:59 -25.89288 -47.56776 38909 ft 487 kts 28°
2026-04-25 21:59 -25.83798 -47.52435 38913 ft 488 kts 28°
2026-04-25 22:00 -25.75519 -47.45896 38907 ft 482 kts 28°
2026-04-25 22:00 -25.72837 -47.43771 38886 ft 467 kts 28°
2026-04-25 22:00 -25.70238 -47.41710 38895 ft 451 kts 27°
2026-04-25 22:01 -25.67720 -47.39718 38877 ft 439 kts 27°
2026-04-25 22:01 -25.65236 -47.37764 38909 ft 439 kts 27°
2026-04-25 22:01 -25.62733 -47.35805 38787 ft 441 kts 27°
2026-04-25 22:01 -25.61073 -47.34506 38519 ft 441 kts 27°
2026-04-25 22:02 -25.57709 -47.31877 37252 ft 455 kts 27°
2026-04-25 22:02 -25.55077 -47.29822 36129 ft 471 kts 28°
2026-04-25 22:02 -25.52361 -47.27700 35099 ft 484 kts 28°
2026-04-25 22:02 -25.49585 -47.25523 34180 ft 494 kts 29°
2026-04-25 22:03 -25.46775 -47.23313 33451 ft 496 kts 29°
2026-04-25 22:03 -25.43973 -47.21105 32995 ft 492 kts 29°
2026-04-25 22:03 -25.41210 -47.18927 32619 ft 485 kts 29°
2026-04-25 22:03 -25.38508 -47.16802 32197 ft 480 kts 28°
2026-04-25 22:04 -25.35786 -47.14699 31682 ft 476 kts 27°
2026-04-25 22:04 -25.33019 -47.12709 31167 ft 473 kts 26°
2026-04-25 22:04 -25.30235 -47.10791 30689 ft 470 kts 25°
2026-04-25 22:04 -25.27460 -47.08904 30256 ft 467 kts 25°
2026-04-25 22:05 -25.24707 -47.07030 29813 ft 463 kts 25°
2026-04-25 22:05 -25.21979 -47.05161 29324 ft 460 kts 25°
2026-04-25 22:05 -25.19276 -47.03299 28830 ft 456 kts 25°
2026-04-25 22:05 -25.16631 -47.01468 28348 ft 453 kts 25°
2026-04-25 22:06 -25.13977 -46.99627 27879 ft 449 kts 25°
2026-04-25 22:06 -25.11335 -46.97794 27411 ft 446 kts 25°
2026-04-25 22:06 -25.08718 -46.95978 26949 ft 443 kts 26°
2026-04-25 22:06 -25.06123 -46.94178 26531 ft 439 kts 26°
2026-04-25 22:07 -25.03552 -46.92397 26108 ft 435 kts 26°
2026-04-25 22:07 -25.01859 -46.91224 25825 ft 433 kts 26°
2026-04-25 22:07 -24.98457 -46.88871 25002 ft 430 kts 26°
2026-04-25 22:07 -24.95932 -46.87124 24309 ft 427 kts 26°
2026-04-25 22:08 -24.93457 -46.85414 23608 ft 424 kts 26°
2026-04-25 22:08 -24.90966 -46.83693 22789 ft 422 kts 27°
2026-04-25 22:08 -24.88496 -46.81986 22149 ft 418 kts 27°
2026-04-25 22:08 -24.86033 -46.80287 21583 ft 417 kts 27°
2026-04-25 22:09 -24.83592 -46.78603 21192 ft 412 kts 27°
2026-04-25 22:09 -24.81176 -46.76936 20773 ft 408 kts 27°
2026-04-25 22:09 -24.78778 -46.75283 20336 ft 404 kts 27°
2026-04-25 22:09 -24.76406 -46.73648 19922 ft 401 kts 28°
2026-04-25 22:10 -24.74048 -46.72025 19500 ft 398 kts 28°
2026-04-25 22:10 -24.71742 -46.70437 19095 ft 395 kts 28°
2026-04-25 22:10 -24.69422 -46.68840 18660 ft 392 kts 28°
2026-04-25 22:10 -24.67116 -46.67254 18244 ft 390 kts 28°
2026-04-25 22:11 -24.64823 -46.65678 17764 ft 387 kts 28°
2026-04-25 22:11 -24.62551 -46.64116 17323 ft 384 kts 28°
2026-04-25 22:11 -24.60203 -46.62806 16872 ft 374 kts 12°
2026-04-25 22:11 -24.57685 -46.62401 16540 ft 361 kts 357°
2026-04-25 22:12 -24.55200 -46.62398 16193 ft 355 kts 355°
2026-04-25 22:12 -24.52743 -46.62446 15837 ft 351 kts 355°
2026-04-25 22:12 -24.50314 -46.62493 15501 ft 347 kts 355°
2026-04-25 22:12 -24.48723 -46.62515 15268 ft 345 kts 355°
2026-04-25 22:13 -24.45562 -46.62542 14821 ft 342 kts 356°
2026-04-25 22:13 -24.43186 -46.62552 14491 ft 341 kts 356°
2026-04-25 22:13 -24.40815 -46.62559 14152 ft 342 kts 356°
2026-04-25 22:13 -24.38430 -46.62565 13821 ft 342 kts 356°
2026-04-25 22:14 -24.36050 -46.62567 13487 ft 341 kts 356°
2026-04-25 22:14 -24.33682 -46.62567 13152 ft 340 kts 356°
2026-04-25 22:14 -24.31320 -46.62568 12828 ft 338 kts 356°
2026-04-25 22:14 -24.28973 -46.62568 12526 ft 337 kts 356°
2026-04-25 22:15 -24.26638 -46.62570 12215 ft 335 kts 356°
2026-04-25 22:15 -24.24347 -46.62571 11908 ft 333 kts 357°
2026-04-25 22:15 -24.22040 -46.62573 11612 ft 331 kts 357°
2026-04-25 22:16 -24.17466 -46.62575 11028 ft 327 kts 357°
2026-04-25 22:16 -24.15200 -46.62577 10733 ft 324 kts 357°
2026-04-25 22:16 -24.12957 -46.62578 10439 ft 320 kts 357°
2026-04-25 22:16 -24.10745 -46.62579 10162 ft 316 kts 357°
2026-04-25 22:17 -24.08571 -46.62580 9891 ft 308 kts 357°
2026-04-25 22:17 -24.06491 -46.62580 9900 ft 292 kts 357°
2026-04-25 22:17 -24.04492 -46.62581 9598 ft 291 kts 357°
2026-04-25 22:17 -24.02468 -46.62584 9214 ft 290 kts 357°
2026-04-25 22:18 -24.00457 -46.62586 8790 ft 289 kts 357°
2026-04-25 22:18 -23.98449 -46.62587 8342 ft 288 kts 357°
2026-04-25 22:18 -23.96453 -46.62589 7959 ft 285 kts 357°
2026-04-25 22:18 -23.94487 -46.62590 7620 ft 280 kts 357°
2026-04-25 22:19 -23.92556 -46.62591 7314 ft 275 kts 357°
2026-04-25 22:19 -23.90661 -46.62592 7043 ft 269 kts 357°
2026-04-25 22:19 -23.88815 -46.62592 6891 ft 262 kts 357°
2026-04-25 22:19 -23.87018 -46.62578 6672 ft 256 kts
2026-04-25 22:20 -23.85377 -46.61974 6447 ft 256 kts 34°
2026-04-25 22:20 -23.84121 -46.60626 6232 ft 251 kts 49°
2026-04-25 22:20 -23.83068 -46.59159 6083 ft 239 kts 51°
2026-04-25 22:20 -23.82078 -46.57753 5895 ft 227 kts 50°
2026-04-25 22:21 -23.81133 -46.56425 5706 ft 216 kts 50°
2026-04-25 22:21 -23.80089 -46.55342 5481 ft 199 kts 22°
2026-04-25 22:21 -23.78824 -46.55097 5431 ft 178 kts 353°
2026-04-25 22:21 -23.77646 -46.55367 5396 ft 168 kts 334°
2026-04-25 22:22 -23.76654 -46.55966 5405 ft 160 kts 325°
2026-04-25 22:22 -23.75716 -46.56596 5298 ft 158 kts 326°
2026-04-25 22:22 -23.74812 -46.57207 5161 ft 148 kts 324°
2026-04-25 22:22 -23.73947 -46.57805 4971 ft 149 kts 324°
2026-04-25 22:23 -23.73083 -46.58404 4795 ft 146 kts 324°
2026-04-25 22:23 -23.72234 -46.58994 4593 ft 145 kts 325°
2026-04-25 22:23 -23.71381 -46.59587 4417 ft 146 kts 325°
2026-04-25 22:23 -23.70527 -46.60180 4234 ft 145 kts 325°
2026-04-25 22:24 -23.69678 -46.60772 4059 ft 145 kts 325°
2026-04-25 22:24 -23.68819 -46.61367 3869 ft 146 kts 326°
2026-04-25 22:24 -23.67966 -46.61963 3725 ft 146 kts 325°
2026-04-25 22:24 -23.67103 -46.62565 3512 ft 149 kts 326°
2026-04-25 22:25 -23.66241 -46.63161 3319 ft 148 kts 326°
2026-04-25 22:25 -23.65378 -46.63763 3105 ft 145 kts 327°
2026-04-25 22:25 -23.64528 -46.64353 2895 ft 145 kts 327°
2026-04-25 22:25 -23.63681 -46.64944 2692 ft 145 kts 327°
2026-04-25 22:26 -23.62905 -46.65481 2609 ft 90 kts 327°
2026-04-25 22:26 -23.62602 -46.65691 2604 ft 40 kts 328°
2026-04-25 22:26 -23.62375 -46.65848 2601 ft 38 kts 327°
2026-04-25 22:26 -23.62252 -46.65934 2599 ft 14 kts 327°
2026-04-25 22:27 -23.62196 -46.66007 2596 ft 12 kts 262°
2026-04-25 22:27 -23.62229 -46.66041 2599 ft 5 kts 202°
2026-04-25 22:27 -23.62263 -46.66033 2599 ft 5 kts 150°
2026-04-25 22:27 -23.62294 -46.66013 2599 ft 5 kts 149°
2026-04-25 22:28 -23.62324 -46.65992 2599 ft 5 kts 146°
2026-04-25 22:28 -23.62353 -46.65971 2599 ft 5 kts 147°
2026-04-25 22:28 -23.62384 -46.65967 2599 ft 5 kts 220°
2026-04-25 22:28 -23.62403 -46.65997 2599 ft 4 kts 237°
2026-04-25 22:29 -23.62413 -46.66014 2599 ft 2 kts 237°
2026-04-25 22:29 -23.62420 -46.66026 2599 ft 0 kts 237°